FW6490 Weather Reports


Display with metric or nautical units.
time (UTC)temp
F
wind
direction
speed
MPH
gust
MPH
rain 1hr
in
rain 24hr
in
rain mn
in
humidity
%
barometer
mb
20260831144638 57 271 1.0 3.0 0.00 0.00 0.00 85 1009.6
20260831143638 57 271 1.0 3.0 0.00 0.00 0.00 85 1009.4
20260831142636 57 271 1.0 4.0 0.00 0.00 0.00 86 1009.3
20260831141632 57 271 1.0 4.0 0.00 0.00 0.00 86 1009.3
20260831141129 57 271 1.0 4.0 0.00 0.00 0.00 86 1009.0
20260831140630 57 271 1.0 3.0 0.00 0.00 0.00 86 1009.0
20260831140127 57 271 1.0 3.0 0.00 0.00 0.00 86 1009.0
20260831135622 57 271 1.0 2.0 0.00 0.00 0.00 87 1008.4
20260831135120 57 271 0.0 2.0 0.00 0.00 0.00 87 1008.4
20260831134622 57 271 0.0 2.0 0.00 0.00 0.00 87 1008.4
20260831133617 57 271 0.0 2.0 0.00 0.00 0.00 87 1008.3
20260831133113 57 271 0.0 1.0 0.00 0.00 0.00 87 1008.3
20260831132610 57 271 0.0 1.0 0.00 0.00 0.00 87 1008.4
20260831131610 57 271 0.0 3.0 0.00 0.00 0.00 87 1008.4
20260831131108 57 271 0.0 0.0 0.00 0.00 0.00 87 1008.5
20260831130602 57 271 0.0 0.0 0.00 0.00 0.00 87 1008.5
20260831130100 57 271 0.0 0.0 0.00 0.00 0.00 87 1008.5
20260831125556 57 271 0.0 0.0 0.00 0.00 0.00 87 1008.5
20260831125059 57 271 0.0 0.0 0.00 0.00 0.00 86 1008.5
20260831124555 57 271 0.0 0.0 0.00 0.00 0.00 86 1008.5
20260831124055 57 271 0.0 0.0 0.00 0.00 0.00 86 1008.3
20260831123552 57 271 0.0 0.0 0.00 0.00 0.00 86 1008.3
20260831123050 57 271 0.0 0.0 0.00 0.00 0.00 86 1008.3
20260831122547 57 271 0.0 2.0 0.00 0.00 0.00 86 1008.0
20260831122048 57 271 1.0 2.0 0.00 0.00 0.00 87 1008.0
20260831121548 57 271 0.0 2.0 0.00 0.00 0.00 87 1008.0
20260831121053 57 271 0.0 1.0 0.00 0.00 0.00 87 1008.0
20260831120542 57 271 0.0 1.0 0.00 0.00 0.00 87 1008.0
20260831120037 58 271 0.0 2.0 0.00 0.00 0.00 86 1008.0
20260831115034 58 271 0.0 2.0 0.00 0.00 0.00 86 1008.1
20260831113524 58 271 0.0 2.0 0.00 0.00 0.00 86 1008.0
20260831113023 58 271 1.0 2.0 0.00 0.00 0.00 86 1008.0
20260831112525 58 271 0.0 2.0 0.00 0.00 0.00 86 1008.1
20260831112021 58 271 0.0 2.0 0.00 0.00 0.00 86 1008.1
20260831111518 58 271 0.0 2.0 0.00 0.00 0.00 86 1008.1
20260831110512 58 271 0.0 2.0 0.00 0.00 0.00 87 1008.1
20260831110012 58 271 0.0 1.0 0.00 0.00 0.00 87 1008.1
20260831105509 58 271 0.0 0.0 0.00 0.00 0.00 87 1008.2
20260831105010 58 271 0.0 0.0 0.00 0.00 0.00 87 1008.2
20260831104506 58 271 0.0 0.0 0.00 0.00 0.00 87 1008.2
20260831104002 58 271 0.0 2.0 0.00 0.00 0.00 87 1008.2
20260831103500 58 271 1.0 4.0 0.00 0.00 0.00 87 1008.2
20260831102955 58 271 1.0 4.0 0.00 0.00 0.00 87 1008.2
20260831102455 58 271 0.0 3.0 0.00 0.00 0.00 87 1008.1
20260831101956 58 271 0.0 0.0 0.00 0.00 0.00 87 1008.1
20260831101456 58 271 0.0 0.0 0.00 0.00 0.00 87 1008.1
20260831100951 58 271 0.0 0.0 0.00 0.00 0.00 87 1008.1
20260831100453 58 271 0.0 0.0 0.00 0.00 0.00 87 1008.1
20260831095948 58 271 0.0 0.0 0.00 0.00 0.00 86 1008.1
20260831095447 58 271 0.0 0.0 0.00 0.00 0.00 87 1008.2
20260831094947 58 271 0.0 0.0 0.00 0.00 0.00 87 1008.2
20260831094445 58 271 0.0 0.0 0.00 0.00 0.00 87 1008.2
20260831093438 58 271 0.0 2.0 0.00 0.00 0.00 87 1008.3
20260831092939 58 271 1.0 3.0 0.00 0.00 0.00 87 1008.3
20260831092435 58 271 1.0 4.0 0.00 0.00 0.00 87 1008.3
20260831091934 58 271 1.0 4.0 0.00 0.00 0.00 87 1008.3
20260831091434 58 271 1.0 3.0 0.00 0.00 0.00 87 1008.3
20260831090932 58 271 1.0 3.0 0.00 0.00 0.00 87 1008.3
20260831085926 58 271 0.0 3.0 0.00 0.00 0.00 87 1008.3
20260831085420 58 271 1.0 3.0 0.00 0.00 0.00 87 1008.4
20260831084922 58 271 1.0 4.0 0.00 0.00 0.00 87 1008.4
20260831084417 58 271 1.0 4.0 0.00 0.00 0.00 87 1008.4
20260831082914 58 271 2.0 4.0 0.00 0.00 0.00 88 1008.4
20260831082411 58 271 2.0 4.0 0.00 0.00 0.00 88 1008.5
20260831081911 58 271 2.0 4.0 0.00 0.00 0.00 88 1008.5
20260831081409 58 271 2.0 4.0 0.00 0.00 0.00 88 1008.5
20260831080913 58 271 1.0 4.0 0.00 0.00 0.00 88 1008.5
20260831080408 58 271 1.0 3.0 0.00 0.00 0.00 88 1008.5
20260831075908 58 271 1.0 4.0 0.00 0.00 0.00 88 1008.5
20260831075406 58 271 2.0 4.0 0.00 0.00 0.00 88 1008.5
20260831074908 58 271 1.0 3.0 0.00 0.00 0.00 88 1008.5
20260831074409 58 269 1.0 3.0 0.00 0.00 0.00 88 1008.5
20260831073405 58 269 1.0 4.0 0.00 0.00 0.00 88 1008.5
20260831072900 58 269 2.0 6.0 0.00 0.00 0.00 88 1008.5
20260831072400 58 268 2.0 6.0 0.00 0.00 0.00 89 1008.4
20260831071900 58 279 1.0 4.0 0.00 0.00 0.00 89 1008.4
20260831071400 58 273 1.0 4.0 0.00 0.00 0.00 89 1008.5
20260831070858 58 273 2.0 4.0 0.00 0.00 0.00 90 1008.5
20260831070352 58 273 2.0 6.0 0.00 0.00 0.00 90 1008.5
20260831065849 58 273 1.0 6.0 0.00 0.00 0.00 90 1008.4
20260831065346 58 325 1.0 3.0 0.00 0.00 0.00 90 1008.4
20260831064850 58 325 1.0 2.0 0.00 0.00 0.00 90 1008.4
20260831064422 58 325 1.0 4.0 0.00 0.00 0.00 90 1008.4
20260831063844 58 325 2.0 4.0 0.00 0.00 0.00 90 1008.4
20260831063338 58 325 2.0 4.0 0.00 0.00 0.00 90 1008.4
20260831062836 57 325 1.0 4.0 0.00 0.00 0.00 90 1008.5
20260831062337 57 325 0.0 3.0 0.00 0.00 0.00 90 1008.5
20260831061836 57 325 0.0 0.0 0.00 0.00 0.00 90 1008.5
20260831061325 57 325 0.0 0.0 0.00 0.00 0.00 90 1008.5
20260831060326 57 325 0.0 0.0 0.00 0.00 0.00 90 1008.5
20260831055819 57 325 0.0 0.0 0.00 0.00 0.00 90 1008.5
20260831055317 57 325 0.0 0.0 0.00 0.00 0.00 90 1008.5
20260831054813 57 325 0.0 0.0 0.00 0.00 0.00 90 1008.5
20260831054312 57 325 0.0 0.0 0.00 0.00 0.00 90 1008.5
20260831053811 57 325 0.0 4.0 0.00 0.00 0.00 90 1008.5
20260831053314 57 325 0.0 4.0 0.00 0.00 0.00 90 1008.5
20260831052811 58 325 0.0 0.0 0.00 0.00 0.00 90 1008.9
20260831052306 58 325 0.0 2.0 0.00 0.00 0.00 89 1008.9
20260831051257 58 325 1.0 2.0 0.00 0.00 0.00 89 1008.7
20260831050757 58 325 1.0 2.0 0.00 0.00 0.00 89 1008.7
20260831045756 58 325 0.0 2.0 0.00 0.00 0.00 88 1008.6
20260831045256 58 325 1.0 3.0 0.00 0.00 0.00 88 1008.6
20260831044755 58 325 1.0 3.0 0.00 0.00 0.00 88 1008.6
20260831044247 58 325 1.0 4.0 0.00 0.00 0.00 88 1008.5
20260831043746 59 325 1.0 4.0 0.00 0.00 0.00 88 1008.5
20260831043240 59 325 1.0 4.0 0.00 0.00 0.00 88 1008.5
20260831042738 59 325 0.0 3.0 0.00 0.00 0.00 87 1008.4
20260831042236 59 325 0.0 3.0 0.00 0.00 0.00 87 1008.4
20260831040730 59 325 1.0 3.0 0.00 0.00 0.00 87 1008.4
20260831040226 59 325 1.0 4.0 0.00 0.00 0.00 87 1008.4
20260831035725 60 325 2.0 4.0 0.00 0.00 0.00 87 1008.3
20260831035225 60 326 2.0 5.0 0.00 0.00 0.00 87 1008.3
20260831034725 60 319 3.0 7.0 0.00 0.00 0.00 86 1008.3
20260831033214 60 315 2.0 9.0 0.00 0.00 0.00 86 1008.0
20260831032214 60 319 2.0 7.0 0.00 0.00 0.00 87 1007.9
20260831031710 59 311 2.0 5.0 0.00 0.00 0.00 86 1007.9
20260831031207 59 311 2.0 4.0 0.00 0.00 0.00 86 1007.9
20260831030159 59 277 3.0 8.0 0.00 0.00 0.00 86 1007.9
20260831025654 59 294 3.0 6.0 0.00 0.00 0.00 86 1007.9
20260831025156 60 286 2.0 5.0 0.00 0.00 0.00 85 1007.9
20260831024654 60 265 2.0 5.0 0.00 0.00 0.00 85 1007.9
20260831024155 60 286 2.0 12.0 0.00 0.00 0.00 85 1007.9
20260831023652 60 286 3.0 12.0 0.00 0.00 0.00 84 1007.9
20260831023149 60 319 3.0 8.0 0.00 0.00 0.00 84 1007.9
20260831022648 61 309 2.0 5.0 0.00 0.00 0.00 83 1007.9
20260831022149 61 296 2.0 6.0 0.00 0.00 0.00 82 1007.9
20260831021646 61 304 2.0 6.0 0.00 0.00 0.00 82 1007.9
20260831021144 62 309 2.0 6.0 0.00 0.00 0.00 81 1007.9
20260831020639 62 260 2.0 6.0 0.00 0.00 0.00 81 1007.9
20260831020139 62 275 3.0 9.0 0.00 0.00 0.00 80 1007.9
20260831015637 62 274 4.0 9.0 0.00 0.00 0.00 80 1007.8
20260831015139 62 311 4.0 11.0 0.00 0.00 0.00 79 1007.8
20260831014135 63 244 4.0 10.0 0.00 0.00 0.00 77 1007.9
20260831013635 64 286 3.0 10.0 0.00 0.00 0.00 75 1007.9
20260831013130 64 283 3.0 8.0 0.00 0.00 0.00 74 1007.9
20260831012631 65 316 3.0 7.0 0.00 0.00 0.00 73 1008.0
20260831012128 66 304 3.0 6.0 0.00 0.00 0.00 72 1008.0
20260831011625 67 309 4.0 8.0 0.00 0.00 0.00 72 1008.0
20260831011124 67 310 5.0 10.0 0.00 0.00 0.00 71 1008.0
20260831010625 67 321 4.0 10.0 0.00 0.00 0.00 70 1008.0
20260831010122 67 306 4.0 7.0 0.00 0.00 0.00 70 1008.0
20260831005621 67 327 4.0 9.0 0.00 0.00 0.00 70 1007.9
20260831004622 68 294 4.0 10.0 0.00 0.00 0.00 69 1007.9
20260831003616 68 323 5.0 12.0 0.00 0.00 0.00 68 1007.8
20260831003114 69 321 4.0 12.0 0.00 0.00 0.00 67 1007.8
20260831002109 69 304 5.0 10.0 0.00 0.00 0.00 67 1007.7
20260831001607 70 303 4.0 10.0 0.00 0.00 0.00 66 1007.7
20260831001107 70 351 4.0 8.0 0.00 0.00 0.00 66 1007.6
20260831000608 70 304 4.0 9.0 0.00 0.00 0.00 65 1007.6
20260831000111 70 340 4.0 9.0 0.00 0.00 0.00 65 1007.6
20260830235610 70 309 5.0 11.0 0.00 0.00 0.00 65 1007.6
20260830235105 70 300 4.0 11.0 0.00 0.00 0.00 65 1007.6
20260830234104 70 331 5.0 11.0 0.00 0.00 0.00 65 1007.7
20260830233100 70 315 6.0 12.0 0.00 0.00 0.00 65 1007.7
20260830232559 71 18 5.0 11.0 0.00 0.00 0.00 64 1007.9
20260830231556 71 323 5.0 11.0 0.00 0.00 0.00 63 1008.0
20260830231054 72 311 5.0 11.0 0.00 0.00 0.00 63 1008.1
20260830230552 72 321 5.0 11.0 0.00 0.00 0.00 63 1008.1
20260830230049 72 315 5.0 9.0 0.00 0.00 0.00 62 1008.1
20260830225546 73 315 4.0 10.0 0.00 0.00 0.00 61 1008.1
20260830225048 73 332 4.0 10.0 0.00 0.00 0.00 61 1008.1
20260830224546 73 309 4.0 9.0 0.00 0.00 0.00 61 1008.1
20260830223543 73 324 4.0 10.0 0.00 0.00 0.00 61 1008.2
20260830223039 73 344 4.0 10.0 0.00 0.00 0.00 61 1008.2
20260830222036 73 328 4.0 9.0 0.00 0.00 0.00 61 1008.2
20260830221536 73 302 5.0 9.0 0.00 0.00 0.00 61 1008.2
20260830220536 73 277 5.0 10.0 0.00 0.00 0.00 61 1008.3
20260830220038 74 318 4.0 10.0 0.00 0.00 0.00 60 1008.3
20260830215536 74 334 4.0 10.0 0.00 0.00 0.00 60 1008.6
20260830215034 73 273 5.0 9.0 0.00 0.00 0.00 61 1008.6
20260830214538 74 16 5.0 10.0 0.00 0.00 0.00 60 1008.6
20260830214037 74 295 4.0 10.0 0.00 0.00 0.00 61 1008.6
20260830213534 73 333 5.0 10.0 0.00 0.00 0.00 61 1008.6
20260830213036 73 317 5.0 11.0 0.00 0.00 0.00 62 1008.6
20260830212532 73 346 5.0 11.0 0.00 0.00 0.00 61 1008.7
20260830212032 72 25 5.0 11.0 0.00 0.00 0.00 61 1008.7
20260830211529 72 348 5.0 11.0 0.00 0.00 0.00 61 1008.7
20260830211028 73 323 5.0 10.0 0.00 0.00 0.00 61 1008.7
20260830210527 72 315 5.0 9.0 0.00 0.00 0.00 62 1008.7
20260830210026 72 319 5.0 10.0 0.00 0.00 0.00 62 1008.7
20260830205524 71 311 6.0 11.0 0.00 0.00 0.00 63 1008.6
20260830205022 72 292 5.0 11.0 0.00 0.00 0.00 63 1008.7
20260830204522 72 317 5.0 11.0 0.00 0.00 0.00 63 1008.7
20260830204022 73 321 5.0 11.0 0.00 0.00 0.00 61 1008.7
20260830203518 73 312 5.0 10.0 0.00 0.00 0.00 61 1008.7
20260830203016 73 323 4.0 10.0 0.00 0.00 0.00 61 1008.7
20260830202514 73 311 4.0 10.0 0.00 0.00 0.00 62 1008.6
20260830202015 72 316 5.0 13.0 0.00 0.00 0.00 63 1008.6
20260830201514 72 339 6.0 13.0 0.00 0.00 0.00 63 1008.6
20260830201010 71 307 6.0 10.0 0.00 0.00 0.00 64 1008.6
20260830200508 71 301 5.0 11.0 0.00 0.00 0.00 64 1008.6
20260830195506 72 323 5.0 10.0 0.00 0.00 0.00 64 1008.9
20260830194505 71 350 6.0 12.0 0.00 0.00 0.00 64 1008.7
20260830194004 70 5 6.0 12.0 0.00 0.00 0.00 65 1008.9
20260830193504 71 311 6.0 12.0 0.00 0.00 0.00 65 1008.9
20260830193004 71 306 6.0 12.0 0.00 0.00 0.00 65 1008.9
20260830192505 72 319 5.0 9.0 0.00 0.00 0.00 64 1009.0
20260830192004 71 319 4.0 8.0 0.00 0.00 0.00 65 1009.0
20260830191505 71 318 5.0 13.0 0.00 0.00 0.00 65 1009.0
20260830190503 71 355 5.0 10.0 0.00 0.00 0.00 66 1009.0
20260830190001 71 317 5.0 9.0 0.00 0.00 0.00 66 1009.0
20260830185504 71 313 5.0 10.0 0.00 0.00 0.00 67 1009.1
20260830184457 70 320 6.0 10.0 0.00 0.00 0.00 68 1009.1
20260830183956 71 291 5.0 10.0 0.00 0.00 0.00 66 1009.1
20260830183458 72 311 4.0 8.0 0.00 0.00 0.00 65 1009.1
20260830182955 72 342 3.0 8.0 0.00 0.00 0.00 65 1009.2
20260830182455 73 303 3.0 7.0 0.00 0.00 0.00 65 1009.2
20260830181450 71 77 0.0 5.0 0.00 0.00 0.00 67 1009.1
20260830180950 71 84 1.0 5.0 0.00 0.00 0.00 67 1009.1
20260830175947 69 47 2.0 5.0 0.00 0.00 0.00 71 1009.1
20260830175446 69 86 1.0 5.0 0.00 0.00 0.00 72 1009.0
20260830173936 67 83 1.0 5.0 0.00 0.00 0.00 74 1008.9
20260830173440 67 76 1.0 4.0 0.00 0.00 0.00 75 1008.9
20260830172936 66 90 0.0 4.0 0.00 0.00 0.00 76 1008.9
20260830171934 66 125 0.0 3.0 0.00 0.00 0.00 76 1008.9
20260830171430 66 126 0.0 3.0 0.00 0.00 0.00 78 1008.9
20260830170930 65 127 0.0 1.0 0.00 0.00 0.00 81 1008.6
20260830170427 64 127 0.0 1.0 0.00 0.00 0.00 81 1008.6
20260830165925 64 128 0.0 3.0 0.00 0.00 0.00 82 1008.6
20260830165426 63 128 0.0 3.0 0.00 0.00 0.00 83 1008.6
20260830164929 63 130 0.0 3.0 0.00 0.00 0.00 85 1008.5
20260830164424 62 132 0.0 3.0 0.00 0.00 0.00 87 1008.5
20260830163922 61 133 1.0 3.0 0.00 0.00 0.00 89 1008.6
20260830163423 61 134 1.0 4.0 0.00 0.00 0.00 89 1008.6
20260830162919 61 123 0.0 4.0 0.00 0.00 0.00 91 1008.6
20260830162419 60 333 0.0 2.0 0.00 0.00 0.00 93 1008.5
20260830161917 60 333 1.0 3.0 0.00 0.00 0.00 94 1008.5
20260830161418 59 333 1.0 4.0 0.00 0.00 0.00 95 1008.5
20260830160916 58 333 1.0 4.0 0.00 0.00 0.00 96 1008.6
20260830160415 57 334 1.0 3.0 0.00 0.00 0.00 96 1008.6
20260830155907 57 333 1.0 3.0 0.00 0.00 0.00 96 1008.6
20260830155406 56 333 1.0 3.0 0.00 0.00 0.00 96 1008.9
20260830154904 56 333 0.0 3.0 0.00 0.00 0.00 96 1008.9
20260830154358 55 333 0.0 0.0 0.00 0.00 0.00 96 1008.7
20260830153857 55 333 0.0 0.0 0.00 0.00 0.00 96 1008.9
20260830153357 54 333 0.0 0.0 0.00 0.00 0.00 96 1008.9
20260830152859 54 333 0.0 0.0 0.00 0.00 0.00 96 1008.9
20260830152356 53 333 0.0 0.0 0.00 0.00 0.00 96 1008.9
20260830151853 53 333 0.0 0.0 0.00 0.00 0.00 96 1008.9
20260830150843 52 333 0.0 0.0 0.00 0.00 0.00 96 1008.5
20260830150345 52 333 0.0 0.0 0.00 0.00 0.00 96 1008.5
20260830145343 51 333 0.0 0.0 0.00 0.00 0.00 96 1008.4